Weather History for Hallock, MN

Change the Weather History Date:

Friday, November 8, 2013

  Actual Average Record
Temperature  
Mean Temperature 28 °F -  
Max Temperature 39 °F 38 °F 63 °F (1978)
Min Temperature 17 °F 18 °F -7 °F (2003)
Degree Days  
Heating Degree Days 37    
Moisture  
Dew Point 27 °F    
Average Humidity 86    
Maximum Humidity 100    
Minimum Humidity 61    
Precipitation  
Precipitation 0.11 in - - ()
Sea Level Pressure  
Sea Level Pressure 29.79 in    
Wind  
Wind Speed 10 mph (ESE)    
Max Wind Speed 18 mph    
Max Gust Speed 29 mph    
Visibility 8 miles    
Events Rain , Snow    
Averages and records for this station are not official NWS values.
T = Trace of Precipitation, MM = Missing Value Source: NWS Daily Summary

Daily Weather History Graph

Daily Weather History Graph

Search for Another Location

Airport:

Trip Planner

Search our weather history database for the weather conditions in past years. The results will help you decide how hot, cold, wet, or windy it might be!

Date:

Astronomy

Nov. 08, 2013 Rise Set
Actual Time 7:25 AM CST 4:56 PM CST
Civil Twilight 6:52 AM CST 5:30 PM CST
Nautical Twilight 6:14 AM CST 6:07 PM CST
Astronomical Twilight 5:37 AM CST 6:44 PM CST
Moon 12:22 PM CST (11/8) 10:20 PM CST (11/8)
Length of Visible Light 10h 37m
Length of Day
9h 30m
Waxing Crescent, 33% of the Moon is Illuminated
Nov 8
Waxing Crescent
Nov 9
First Quarter
Nov 17
Full
Nov 25
Last Quarter
Dec 2
New

Hourly Weather History & Observations

Time (CST) Temp. Windchill Dew Point Humidity Pressure Visibility Wind Dir Wind Speed Gust Speed Precip Events Conditions
12:13 AM 19.4 °F 8.6 °F 15.8 °F 86% 30.06 in 10.0 mi SSE 9.2 mph - N/A   Clear
12:33 AM 17.6 °F 7.3 °F 15.8 °F 93% 30.06 in 10.0 mi SSE 8.1 mph - N/A   Clear
12:53 AM 17.6 °F 7.3 °F 14.0 °F 86% 30.06 in 10.0 mi SSE 8.1 mph - N/A   Clear
1:13 AM 17.6 °F 7.3 °F 12.2 °F 79% 30.06 in 10.0 mi SSE 8.1 mph - N/A   Clear
1:33 AM 17.6 °F 6.4 °F 14.0 °F 86% 30.05 in 10.0 mi SSE 9.2 mph - N/A   Clear
1:53 AM 17.6 °F 6.4 °F 14.0 °F 86% 30.04 in 10.0 mi SE 9.2 mph - N/A   Clear
2:13 AM 17.6 °F 6.4 °F 15.8 °F 93% 30.04 in 10.0 mi SE 9.2 mph - N/A   Clear
2:33 AM 19.4 °F 8.6 °F 15.8 °F 86% 30.04 in 10.0 mi SSE 9.2 mph - N/A   Clear
2:53 AM 17.6 °F 6.4 °F 15.8 °F 93% 30.03 in 10.0 mi SE 9.2 mph - N/A   Clear
3:13 AM 19.4 °F 8.6 °F 15.8 °F 86% 30.02 in 10.0 mi SE 9.2 mph - N/A   Clear
3:33 AM 19.4 °F 8.6 °F 17.6 °F 93% 30.01 in 10.0 mi SE 9.2 mph - N/A   Clear
3:53 AM 21.2 °F 10.1 °F 17.6 °F 86% 30.00 in 10.0 mi SE 10.4 mph - N/A   Clear
4:13 AM 21.2 °F 10.9 °F 19.4 °F 93% 29.99 in 10.0 mi SE 9.2 mph - N/A   Clear
4:33 AM 23.0 °F 13.1 °F 19.4 °F 86% 29.98 in 10.0 mi SE 9.2 mph - N/A   Clear
4:53 AM 23.0 °F 13.1 °F 19.4 °F 86% 29.97 in 10.0 mi SE 9.2 mph - N/A   Clear
5:13 AM 23.0 °F 13.1 °F 19.4 °F 86% 29.97 in 10.0 mi SE 9.2 mph - N/A   Clear
5:33 AM 24.8 °F 15.3 °F 21.2 °F 86% 29.96 in 10.0 mi SE 9.2 mph - N/A   Clear
5:53 AM 24.8 °F 14.6 °F 21.2 °F 86% 29.95 in 10.0 mi SE 10.4 mph - N/A   Scattered Clouds
6:13 AM 26.6 °F 16.8 °F 21.2 °F 80% 29.93 in 10.0 mi SE 10.4 mph - N/A   Scattered Clouds
6:33 AM 26.6 °F 16.2 °F 23.0 °F 86% 29.92 in 10.0 mi SE 11.5 mph - N/A   Scattered Clouds
6:53 AM 28.4 °F 19.1 °F 24.8 °F 86% 29.91 in 10.0 mi SE 10.4 mph - N/A   Scattered Clouds
7:13 AM 30.2 °F 20.8 °F 24.8 °F 80% 29.90 in 10.0 mi SE 11.5 mph - N/A   Scattered Clouds
7:33 AM 30.2 °F 21.3 °F 24.8 °F 80% 29.89 in 10.0 mi SE 10.4 mph - N/A   Mostly Cloudy
7:53 AM 30.2 °F 20.2 °F 26.6 °F 86% 29.88 in 10.0 mi SE 12.7 mph - N/A   Scattered Clouds
8:13 AM 32.0 °F 23.0 °F 26.6 °F 80% 29.86 in 10.0 mi SE 11.5 mph - N/A   Mostly Cloudy
8:33 AM 33.8 °F 24.3 °F 26.6 °F 75% 29.86 in 10.0 mi SE 13.8 mph - N/A   Scattered Clouds
8:53 AM 33.8 °F 25.3 °F 26.6 °F 75% 29.85 in 10.0 mi SE 11.5 mph - N/A   Scattered Clouds
9:13 AM 33.8 °F 25.3 °F 26.6 °F 75% 29.84 in 10.0 mi SE 11.5 mph - N/A   Scattered Clouds
9:33 AM 35.6 °F 26.6 °F 26.6 °F 70% 29.83 in 10.0 mi ESE 13.8 mph - N/A   Mostly Cloudy
9:53 AM 35.6 °F 27.5 °F 26.6 °F 70% 29.82 in 10.0 mi ESE 11.5 mph - N/A   Scattered Clouds
10:13 AM 35.6 °F 28.0 °F 26.6 °F 70% 29.81 in 10.0 mi ESE 10.4 mph - N/A   Scattered Clouds
10:33 AM 35.6 °F 27.1 °F 26.6 °F 70% 29.82 in 10.0 mi SE 12.7 mph - N/A   Mostly Cloudy
10:53 AM 37.4 °F 30.3 °F 26.6 °F 65% 29.80 in 10.0 mi ESE 10.4 mph - N/A   Scattered Clouds
11:13 AM 37.4 °F 29.3 °F 26.6 °F 65% 29.80 in 10.0 mi ESE 12.7 mph - N/A   Scattered Clouds
11:33 AM 39.2 °F 31.6 °F 26.6 °F 61% 29.79 in 10.0 mi SE 12.7 mph - N/A   Scattered Clouds
11:53 AM 39.2 °F 30.8 °F 28.4 °F 65% 29.77 in 10.0 mi SE 15.0 mph - N/A   Light Drizzle
12:13 PM 37.4 °F 28.9 °F 30.2 °F 75% 29.75 in 7.0 mi ESE 13.8 mph 17.3 mph N/A Rain Light Rain
12:33 PM 37.4 °F 29.3 °F 32.0 °F 81% 29.73 in 7.0 mi ESE 12.7 mph - N/A Rain Light Rain
12:53 PM 37.4 °F 29.3 °F 32.0 °F 81% 29.72 in 7.0 mi ESE 12.7 mph - N/A Rain Light Rain
1:13 PM 37.4 °F 28.9 °F 32.0 °F 81% 29.71 in 5.0 mi ESE 13.8 mph - 0.01 in Rain Rain
1:33 PM 35.6 °F 27.1 °F 33.8 °F 93% 29.71 in 5.0 mi ESE 12.7 mph - 0.03 in Rain Light Rain
1:53 PM 35.6 °F 26.6 °F 33.8 °F 93% 29.70 in 4.0 mi ESE 13.8 mph - 0.05 in Rain Light Rain
2:13 PM 35.6 °F 26.2 °F 33.8 °F 93% 29.69 in 3.0 mi East 15.0 mph - 0.02 in Rain Light Rain
2:33 PM 35.6 °F 25.9 °F 33.8 °F 93% 29.68 in 2.5 mi East 16.1 mph - 0.04 in Rain Light Rain
2:53 PM 35.6 °F 25.5 °F 33.8 °F 93% 29.67 in 3.0 mi East 17.3 mph - 0.05 in Snow Light Snow
3:13 PM 35.6 °F 25.9 °F 33.8 °F 93% 29.66 in 3.0 mi ESE 16.1 mph 21.9 mph N/A Snow Light Snow
3:33 PM 35.6 °F 26.2 °F 33.8 °F 93% 29.65 in 5.0 mi ESE 15.0 mph - N/A Snow Light Snow
3:53 PM 35.6 °F 25.2 °F 33.8 °F 93% 29.65 in 5.0 mi ESE 18.4 mph 28.8 mph 0.01 in Snow Light Snow
4:13 PM 35.6 °F 25.9 °F 33.8 °F 93% 29.64 in 7.0 mi East 16.1 mph - N/A Rain Light Rain
4:33 PM 35.6 °F 26.2 °F 33.8 °F 93% 29.63 in 10.0 mi ESE 15.0 mph - N/A Rain Light Rain
4:53 PM 35.6 °F 25.9 °F 33.8 °F 93% 29.62 in 10.0 mi East 16.1 mph - N/A   Light Drizzle
5:13 PM 35.6 °F 26.6 °F 33.8 °F 93% 29.62 in 10.0 mi East 13.8 mph - N/A   Light Drizzle
5:33 PM 35.6 °F 26.6 °F 33.8 °F 93% 29.62 in 10.0 mi ESE 13.8 mph - N/A   Overcast
5:53 PM 35.6 °F 26.6 °F 33.8 °F 93% 29.62 in 10.0 mi ESE 13.8 mph 19.6 mph N/A   Overcast
6:13 PM 35.6 °F 27.1 °F 33.8 °F 93% 29.62 in 10.0 mi ESE 12.7 mph 17.3 mph N/A   Overcast
6:33 PM 35.6 °F 27.5 °F 33.8 °F 93% 29.63 in 10.0 mi ESE 11.5 mph - N/A   Overcast
6:53 PM 35.6 °F 28.0 °F 33.8 °F 93% 29.63 in 10.0 mi ESE 10.4 mph - N/A   Overcast
7:13 PM 35.6 °F 28.6 °F 32.0 °F 87% 29.63 in 10.0 mi ESE 9.2 mph - N/A   Light Drizzle
7:33 PM 35.6 °F 28.6 °F 32.0 °F 87% 29.62 in 10.0 mi East 9.2 mph - N/A   Light Drizzle
7:53 PM 35.6 °F 28.6 °F 33.8 °F 93% 29.62 in 7.0 mi East 9.2 mph - N/A   Overcast
8:13 PM 35.6 °F 30.7 °F 33.8 °F 93% 29.61 in 5.0 mi ESE 5.8 mph - N/A   Overcast
8:33 PM 35.6 °F 29.2 °F 33.8 °F 93% 29.61 in 3.0 mi East 8.1 mph - N/A   Overcast
8:53 PM 35.6 °F 29.2 °F 33.8 °F 93% 29.61 in 2.5 mi East 8.1 mph - N/A   Overcast
9:13 PM 35.6 °F 29.9 °F 33.8 °F 93% 29.61 in 3.0 mi East 6.9 mph - N/A   Overcast
9:33 PM 35.6 °F 29.2 °F 33.8 °F 93% 29.60 in 4.0 mi East 8.1 mph - N/A   Overcast
9:53 PM 35.6 °F 30.7 °F 33.8 °F 93% 29.61 in 5.0 mi East 5.8 mph - N/A   Overcast
10:13 PM 35.6 °F 31.7 °F 33.8 °F 93% 29.61 in 5.0 mi East 4.6 mph - N/A   Overcast
10:33 PM 35.6 °F 30.7 °F 33.8 °F 93% 29.61 in 5.0 mi East 5.8 mph - N/A   Overcast
10:53 PM 33.8 °F 29.6 °F 33.8 °F 100% 29.61 in 5.0 mi East 4.6 mph - N/A   Overcast
11:14 PM 33.8 °F - 33.8 °F 100% 29.62 in 4.0 mi Calm Calm - N/A   Overcast
11:33 PM 33.8 °F - 33.8 °F 100% 29.62 in 4.0 mi Calm Calm - N/A   Overcast
11:53 PM 33.8 °F 30.8 °F 33.8 °F 100% 29.62 in 4.0 mi ENE 3.5 mph - N/A   Overcast